Location: Devils Tower National Monument
(44.5904°N, 104.7201°W)
Time: 04:29:10
(UTC-07:00)

Envisat - Pass Details

Date: 30 January 2020
Orbit: 764 x 766 km, 98.1° (Epoch: 25 February)

Event Time Altitude Azimuth Distance (km) Brightness Sun altitude
Rises 06:06:35 0° 20° (NNE) 3,239 6.4 -13.3°
Reaches altitude 10° 06:09:03 10° 28° (NNE) 2,308 5.7 -12.9°
Maximum altitude 06:13:48 39° 97° (E) 1,132 4.6 -12.0°
Drops below altitude 10° 06:18:31 10° 166° (SSE) 2,291 5.8 -11.2°
Sets 06:20:57 0° 174° (S) 3,213 6.5 -10.8°
